Pineville, LA

11:22 AM CST on February 26, 2017 (GMT -0600)
Alexandria Esler Regional

Weather History for KESF - November, 2012

Change the Weather History Date:

Sunday, November 4, 2012

  Actual Average Record
Temperature  
Mean Temperature 68 °F -  
Max Temperature 80 °F 69 °F 86 °F (2016)
Min Temperature 57 °F 44 °F 26 °F (1991)
Cooling Degree Days 3    
Growing Degree Days 18 (Base 50)    
Moisture  
Dew Point 60 °F    
Average Humidity 81    
Maximum Humidity 94    
Minimum Humidity 48    
Precipitation  
Precipitation 0.00 in - - ()
Sea Level Pressure  
Sea Level Pressure 30.09 in    
Wind  
Wind Speed 1 mph (ENE)    
Max Wind Speed 8 mph    
Max Gust Speed -    
Visibility 10 miles    
Events      
Averages and records for this station are not official NWS values.
T = Trace of Precipitation, MM = Missing Value Source: NWS Daily Summary

Daily Weather History Graph

Daily Weather History Graph

Search for Another Location

Airport or City:

Trip Planner

Search our weather history database for the weather conditions in past years. The results will help you decide how hot, cold, wet, or windy it might be!

Date:

Astronomy

Nov. 04, 2012 Rise Set
Actual Time 6:27 AM CST 5:17 PM CST
Civil Twilight 6:02 AM CST 5:42 PM CST
Nautical Twilight 5:33 AM CST 6:11 PM CST
Astronomical Twilight 5:05 AM CST 6:39 PM CST
Moon 9:58 PM CST (11/4) 11:07 AM CST (11/4)
Length of Visible Light 11h 39m
Length of Day
10h 49m
Waning Gibbous, 72% of the Moon is Illuminated
Nov 4
Waning Gibbous
Nov 6
Last Quarter
Nov 13
New
Nov 20
First Quarter
Nov 28
Full

Hourly Weather History & Observations

Time (CST) Temp. Dew Point Humidity Pressure Visibility Wind Dir Wind Speed Gust Speed Precip Events Conditions
12:01 AM 66.2 °F 62.6 °F 88% 30.07 in 10.0 mi Calm Calm - N/A   Scattered Clouds
12:53 AM 64.9 °F 61.0 °F 87% 30.07 in 10.0 mi Calm Calm - N/A   Clear
1:53 AM 64.0 °F 62.1 °F 93% 30.06 in 10.0 mi Calm Calm - N/A   Clear
1:53 AM 63.0 °F 61.0 °F 93% 30.05 in 8.0 mi Calm Calm - N/A   Clear
2:53 AM 63.0 °F 61.0 °F 93% 30.04 in 9.0 mi Calm Calm - N/A   Clear
3:53 AM 62.1 °F 60.1 °F 93% 30.07 in 8.0 mi Calm Calm - N/A   Mostly Cloudy
4:18 AM 64.4 °F 62.6 °F 94% 30.08 in 10.0 mi Calm Calm - N/A   Mostly Cloudy
4:38 AM 62.6 °F 60.8 °F 94% 30.08 in 10.0 mi Calm Calm - N/A   Mostly Cloudy
4:53 AM 62.1 °F 60.1 °F 93% 30.08 in 9.0 mi Calm Calm - N/A   Partly Cloudy
5:53 AM 62.1 °F 60.1 °F 93% 30.09 in 8.0 mi Calm Calm - N/A   Overcast
6:53 AM 62.1 °F 60.1 °F 93% 30.09 in 7.0 mi Calm Calm - N/A   Clear
7:53 AM 64.9 °F 62.1 °F 90% 30.10 in 10.0 mi Calm Calm - N/A   Overcast
8:35 AM 66.2 °F 62.6 °F 88% 30.11 in 10.0 mi ENE 4.6 mph - N/A   Overcast
8:53 AM 66.0 °F 62.1 °F 87% 30.12 in 10.0 mi Calm Calm - N/A   Overcast
9:53 AM 66.9 °F 62.1 °F 84% 30.13 in 10.0 mi Calm Calm - N/A   Mostly Cloudy
10:16 AM 68.0 °F 62.6 °F 83% 30.14 in 10.0 mi ENE 3.5 mph - N/A   Overcast
10:23 AM 68.0 °F 62.6 °F 83% 30.14 in 10.0 mi NE 3.5 mph - N/A   Overcast
10:53 AM 69.1 °F 63.0 °F 81% 30.13 in 10.0 mi ESE 6.9 mph - N/A   Mostly Cloudy
11:08 AM 71.6 °F 62.6 °F 73% 30.12 in 10.0 mi East 5.8 mph - N/A   Scattered Clouds
11:50 AM 73.4 °F 62.6 °F 69% 30.10 in 10.0 mi Variable 3.5 mph - N/A   Mostly Cloudy
11:53 AM 73.9 °F 62.1 °F 66% 30.09 in 10.0 mi Variable 4.6 mph - N/A   Mostly Cloudy
12:50 PM 75.2 °F 60.8 °F 61% 30.07 in 10.0 mi Calm Calm - N/A   Scattered Clouds
12:53 PM 75.0 °F 59.0 °F 57% 30.06 in 10.0 mi East 4.6 mph - N/A   Partly Cloudy
1:53 PM 78.1 °F 57.9 °F 50% 30.04 in 10.0 mi Variable 4.6 mph - N/A   Partly Cloudy
2:53 PM 79.0 °F 57.9 °F 48% 30.03 in 10.0 mi Calm Calm - N/A   Partly Cloudy
3:53 PM 79.0 °F 57.9 °F 48% 30.03 in 10.0 mi ENE 4.6 mph - N/A   Partly Cloudy
4:53 PM 66.0 °F 57.0 °F 73% 30.06 in 10.0 mi ENE 8.1 mph - N/A   Clear
5:53 PM 63.0 °F 55.9 °F 78% 30.08 in 10.0 mi NNE 3.5 mph - N/A   Clear
6:53 PM 61.0 °F 55.9 °F 83% 30.09 in 10.0 mi ENE 3.5 mph - N/A   Clear
7:53 PM 60.1 °F 55.0 °F 83% 30.09 in 10.0 mi Calm Calm - N/A   Clear
8:53 PM 59.0 °F 55.0 °F 87% 30.11 in 10.0 mi Calm Calm - N/A   Clear
9:53 PM 57.0 °F 55.0 °F 93% 30.11 in 9.0 mi Calm Calm - N/A   Mostly Cloudy
10:53 PM 57.9 °F 54.0 °F 87% 30.10 in 10.0 mi Calm Calm - N/A   Mostly Cloudy